[[{"header":{"parameterUnit":"m.s-1","parameterCategory":1,"la1":30.2991,"la2":30.254,"lo1":-89.0895,"lo2":-89.0444,"dy":0.0017,"dx":0.0017,"nx":28,"ny":28,"refTime":"2025-02-13T03:00:00:Z","depth":0,"parameterNumber":2,"parameterNumberName":"U-component_of_WINDS"},"data":[0,0,0,0,0,0,0,0,0,0,0,0,0,0,0,0,0,0,0,0,0,0,0,0,0,0,0,0,0,0,0,0,0,0,0,0,0,0,0,0,0,0,0,0,0,0,0,0,0,0,0,0,0,0,0,0,0,0,-0.5152,-0.5153,0,-0.5228,-0.5229,-0.523,-0.5236,-0.5235,-0.5234,-0.5233,-0.5313,-0.5316,-0.5319,0,0,0,0,0,0,0,0,0,0,0,0,0,-0.5012,-0.5014,-0.5152,-0.5153,-0.5154,-0.5228,-0.5229,-0.523,-0.5236,-0.5235,-0.5234,-0.5233,-0.5312,-0.5316,-0.5319,0,0,0,0,0,0,0,0,0,0,0,0,0,-0.5079,-0.5015,-0.5152,-0.5165,-0.5167,-0.5228,-0.5229,-0.5231,-0.5236,-0.5235,-0.5233,-0.5232,-0.5311,-0.5315,-0.532,-0.5372,0,0,-0.5333,-0.5335,0,0,0,0,0,0,0,0,-0.5075,-0.5084,-0.5162,-0.5165,-0.5167,-0.5221,-0.5209,-0.5278,-0.5236,-0.521,-0.5233,-0.5232,-0.5284,-0.529,-0.5307,-0.5376,-0.5379,-0.5333,-0.5336,-0.5338,-0.5339,0,0,0,0,0,0,0,-0.507,-0.5081,-0.5182,-0.5164,-0.5166,-0.5168,-0.5176,-0.5222,-0.5253,-0.5212,-0.5213,-0.5222,-0.5285,-0.5303,-0.5309,-0.538,-0.5333,-0.5337,-0.534,-0.5341,-0.5496,-0.5497,0,0,0,0,0,0,-0.5063,-0.5077,-0.518,-0.5184,-0.5117,-0.5172,-0.5181,-0.5205,-0.5253,-0.5259,-0.5223,-0.5222,-0.5296,-0.5304,-0.5312,-0.5377,-0.5338,-0.5342,-0.5344,-0.5494,-0.5496,-0.5498,0,0,0,0,0,0,-0.506,-0.5072,-0.5177,-0.5131,-0.5144,-0.5175,-0.5203,-0.5207,-0.5226,-0.526,-0.5266,-0.5236,-0.5296,-0.5306,-0.5357,-0.538,-0.5344,-0.5348,-0.5492,-0.5495,-0.5497,-0.5507,0,0,0,0,0,0,-0.5056,-0.5071,-0.5091,-0.5131,-0.5147,-0.522,-0.5204,-0.521,-0.5233,-0.5232,-0.5274,-0.528,-0.5295,-0.535,-0.5361,-0.5385,-0.5351,-0.5491,-0.5493,-0.5496,-0.5505,-0.5509,-0.5513,0,0,0,0,0,-0.5051,-0.5091,-0.5092,-0.5104,-0.5172,-0.5221,-0.523,-0.5247,-0.5235,-0.5256,-0.5278,-0.5279,-0.5375,-0.5356,-0.5368,-0.5394,-0.5489,-0.5493,-0.5496,-0.5503,-0.5508,-0.5513,0,0,0,0,0,0,-0.5054,-0.5097,-0.5098,-0.5153,-0.5183,-0.5222,-0.5249,-0.5252,-0.5287,-0.5285,-0.5304,-0.5313,-0.5364,-0.5384,-0.5361,-0.5447,-0.5431,-0.5437,-0.5432,-0.5438,-0.5442,-0.5437,-0.5355,0,0,0,0,0,-0.506,-0.5096,-0.5132,-0.5177,-0.5192,-0.5218,-0.5239,-0.5249,-0.5282,-0.5295,-0.5321,-0.5353,-0.5391,-0.5415,-0.5451,-0.5507,-0.5517,-0.5531,-0.5535,-0.5538,-0.5544,-0.5575,-0.5582,-0.5508,-0.5508,-0.5508,0,0,-0.5075,-0.5103,-0.5125,-0.5178,-0.5203,-0.524,-0.5229,-0.5268,-0.5296,-0.5301,-0.5351,-0.5371,-0.5408,-0.5462,-0.5487,-0.548,-0.5566,-0.5542,-0.5545,-0.5549,-0.5579,-0.5586,-0.5592,-0.5511,-0.551,-0.551,0,0,-0.5121,-0.5146,-0.5186,-0.5211,-0.5248,-0.5265,-0.5274,-0.5313,-0.5326,-0.5376,-0.5381,-0.5414,-0.5478,-0.5505,-0.5526,-0.5581,-0.5584,-0.5592,-0.5615,-0.5645,-0.5651,-0.5656,-0.5676,-0.5683,-0.5597,-0.5597,-0.5597,0,-0.5135,-0.5191,-0.5206,-0.5246,-0.5269,-0.5274,-0.5315,-0.5339,-0.5387,-0.5403,-0.5394,-0.5474,-0.55,-0.556,-0.5573,-0.559,-0.5602,-0.5588,-0.5649,-0.5654,-0.5659,-0.5679,-0.5686,-0.5598,-0.5598,-0.5598,-0.5598,0,-0.5206,-0.5245,-0.5273,-0.5318,-0.5344,-0.5384,-0.5406,-0.5431,-0.5438,-0.5455,-0.5506,-0.5537,-0.5579,-0.5594,-0.5602,-0.5655,-0.565,-0.5644,-0.5629,-0.5667,-0.5686,-0.5693,-0.5599,-0.5599,-0.5599,-0.5599,0,0,-0.5258,-0.531,-0.532,-0.5341,-0.5382,-0.5412,-0.5452,-0.5494,-0.5515,-0.5547,-0.5582,-0.5635,-0.5631,-0.5655,-0.5666,-0.5692,-0.5734,-0.5684,-0.5685,-0.5693,-0.5796,-0.58,-0.5809,-0.5735,-0.5737,-0.5738,-0.5793,0,-0.5309,-0.5381,-0.5395,-0.5457,-0.5493,-0.5498,-0.5533,-0.5563,-0.558,-0.5613,-0.5632,-0.567,-0.5661,-0.5676,-0.5702,-0.5723,-0.5755,-0.572,-0.5769,-0.577,-0.576,-0.5818,-0.5823,-0.5874,-0.58,-0.5801,-0.5802,0,-0.5379,-0.5413,-0.5478,-0.5514,-0.553,-0.5561,-0.56,-0.5631,-0.5665,-0.5675,-0.5702,-0.571,-0.5752,-0.5733,-0.5792,-0.5767,-0.5788,-0.5801,-0.5804,-0.581,-0.5789,-0.5827,-0.589,-0.5898,-0.5814,-0.5813,-0.5812,0,-0.5411,-0.5473,-0.552,-0.5537,-0.558,-0.5602,-0.5621,-0.5653,-0.5677,-0.5711,-0.5726,-0.5765,-0.5786,-0.5815,-0.5833,-0.5818,-0.589,-0.5873,-0.5901,-0.5901,-0.5918,-0.5916,-0.5986,-0.5929,-0.5929,-0.5928,-0.5928,0,-0.5468,-0.5508,-0.5535,-0.5564,-0.5609,-0.5625,-0.5669,-0.5688,-0.5716,-0.5749,-0.5756,-0.5787,-0.5807,-0.5841,-0.5855,-0.5902,-0.5911,-0.5922,-0.5925,-0.5922,-0.5921,-0.5937,-0.5934,-0.5931,-0.593,-0.593,-0.5929,0,-0.5512,-0.5531,-0.5583,-0.562,-0.563,-0.5661,-0.5693,-0.5721,-0.5738,-0.578,-0.579,-0.5817,-0.5857,-0.5877,-0.5927,-0.5937,-0.599,-0.599,-0.5979,-0.598,-0.6007,-0.6005,-0.609,-0.6102,-0.6036,-0.6037,-0.6037,0,-0.5548,-0.5578,-0.5618,-0.564,-0.566,-0.5696,-0.572,-0.5736,-0.5761,-0.5801,-0.5825,-0.5865,-0.5898,-0.5962,-0.5987,-0.6025,-0.6027,-0.6054,-0.6033,-0.6029,-0.6029,-0.6027,-0.6031,-0.6059,-0.6059,-0.606,-0.606,0,-0.5609,-0.5617,-0.5651,-0.5688,-0.5717,-0.5747,-0.5777,-0.5795,-0.5817,-0.5844,-0.5885,-0.5911,-0.5962,-0.6002,-0.6042,-0.6062,-0.6065,-0.6066,-0.6075,-0.6073,-0.6065,-0.607,-0.599,-0.6065,-0.6064,-0.6064,-0.6064,-0.6064,-0.5651,-0.5678,-0.571,-0.5748,-0.5772,-0.58,-0.5828,-0.5848,-0.5883,-0.5925,-0.5933,-0.5976,-0.6008,-0.6062,-0.6083,-0.6118,-0.6112,-0.6124,-0.6127,-0.613,-0.6132,-0.6058,-0.6125,-0.6125,-0.6125,-0.6124,-0.6124,0,-0.5713,-0.5733,-0.5768,-0.5809,-0.5839,-0.5838,-0.5871,-0.5896,-0.5935,-0.5964,-0.5996,-0.6043,-0.6082,-0.6108,-0.6148,-0.617,-0.6173,-0.618,-0.618,-0.6184,-0.6135,-0.6124,-0.6178,-0.6178,-0.6178,-0.6178,-0.6178,-0.6178,-0.5749,-0.5796,-0.5807,-0.5866,-0.5887,-0.5929,-0.5948,-0.5974,-0.5997,-0.6049,-0.6081,-0.6098,-0.6126,-0.6168,-0.6203,-0.621,-0.6225,-0.6232,-0.6239,-0.6193,-0.6188,-0.6182,-0.6172,-0.6235,-0.6235,-0.6286,-0.6286,-0.6287]},{"header":{"parameterUnit":"m.s-1","parameterCategory":1,"la1":30.2991,"la2":30.254,"lo1":-89.0895,"lo2":-89.0444,"dy":0.0017,"dx":0.0017,"nx":28,"ny":28,"refTime":"2025-02-13T03:00:00:Z","depth":0,"parameterNumber":3,"parameterNumberName":"V-component_of_WINDS"},"data":[0,0,0,0,0,0,0,0,0,0,0,0,0,0,0,0,0,0,0,0,0,0,0,0,0,0,0,0,0,0,0,0,0,0,0,0,0,0,0,0,0,0,0,0,0,0,0,0,0,0,0,0,0,0,0,0,0,0,-7.0507,-7.0508,0,-7.0603,-7.0605,-7.0606,-7.0555,-7.0552,-7.055,-7.0547,-7.064,-7.0644,-7.0649,0,0,0,0,0,0,0,0,0,0,0,0,0,-7.0275,-7.0279,-7.0507,-7.0508,-7.051,-7.0603,-7.0605,-7.0606,-7.0555,-7.0552,-7.0549,-7.0546,-7.0638,-7.0644,-7.065,0,0,0,0,0,0,0,0,0,0,0,0,0,-7.0374,-7.0281,-7.0507,-7.0496,-7.0496,-7.0603,-7.0605,-7.0606,-7.0556,-7.0552,-7.0548,-7.0545,-7.0636,-7.0643,-7.065,-7.0772,0,0,-7.0673,-7.0676,0,0,0,0,0,0,0,0,-7.0368,-7.0382,-7.0496,-7.0497,-7.0497,-7.0563,-7.0557,-7.0662,-7.0557,-7.0533,-7.0547,-7.0543,-7.0617,-7.0626,-7.0652,-7.0777,-7.0781,-7.0673,-7.0678,-7.0681,-7.0683,0,0,0,0,0,0,0,-7.0361,-7.0378,-7.0545,-7.0498,-7.0498,-7.0484,-7.0494,-7.0576,-7.0595,-7.0535,-7.0531,-7.0544,-7.0616,-7.0645,-7.0654,-7.0782,-7.0673,-7.068,-7.0684,-7.0687,-7.1014,-7.1018,0,0,0,0,0,0,-7.0356,-7.0372,-7.0542,-7.0548,-7.0422,-7.0492,-7.0503,-7.0546,-7.0594,-7.0598,-7.0547,-7.0541,-7.0634,-7.0645,-7.0657,-7.0805,-7.0681,-7.0688,-7.0692,-7.101,-7.1015,-7.1019,0,0,0,0,0,0,-7.0351,-7.0371,-7.0538,-7.0459,-7.048,-7.05,-7.0549,-7.055,-7.0578,-7.0603,-7.0606,-7.0573,-7.0632,-7.0646,-7.0745,-7.0807,-7.0691,-7.0698,-7.1004,-7.1011,-7.1017,-7.11,0,0,0,0,0,0,-7.0345,-7.037,-7.0418,-7.0461,-7.0484,-7.0626,-7.0552,-7.0554,-7.0592,-7.0585,-7.0629,-7.0632,-7.063,-7.0734,-7.0752,-7.0815,-7.0703,-7.0999,-7.1007,-7.1015,-7.1092,-7.1109,-7.1123,0,0,0,0,0,-7.0337,-7.0435,-7.042,-7.0441,-7.0544,-7.063,-7.0643,-7.064,-7.0597,-7.0645,-7.0661,-7.0631,-7.0797,-7.0745,-7.0765,-7.083,-7.0995,-7.1005,-7.1014,-7.1085,-7.1105,-7.1123,0,0,0,0,0,0,-7.0396,-7.0441,-7.0424,-7.054,-7.0582,-7.0621,-7.0681,-7.0662,-7.0715,-7.0706,-7.0698,-7.0708,-7.0812,-7.083,-7.0771,-7.0952,-7.0889,-7.0903,-7.0936,-7.0956,-7.0971,-7.0965,-7.0709,0,0,0,0,0,-7.0423,-7.0491,-7.0525,-7.0624,-7.0646,-7.066,-7.0697,-7.0692,-7.0734,-7.0751,-7.0774,-7.0815,-7.0876,-7.0917,-7.0974,-7.1094,-7.1104,-7.1149,-7.1165,-7.1177,-7.119,-7.1256,-7.1278,-7.1051,-7.1051,-7.1051,0,0,-7.0478,-7.0511,-7.0554,-7.0637,-7.0669,-7.0738,-7.0675,-7.0751,-7.0802,-7.0761,-7.0857,-7.0876,-7.092,-7.1031,-7.1081,-7.105,-7.1254,-7.119,-7.12,-7.1205,-7.1269,-7.129,-7.1309,-7.1058,-7.1057,-7.1056,0,0,-7.0616,-7.0647,-7.0734,-7.0768,-7.0818,-7.0827,-7.0848,-7.0891,-7.0903,-7.1,-7.0972,-7.1031,-7.1137,-7.1171,-7.1202,-7.1355,-7.1329,-7.1373,-7.1454,-7.1519,-7.1537,-7.1553,-7.1609,-7.1629,-7.1385,-7.1386,-7.1386,0,-7.0678,-7.0783,-7.0781,-7.086,-7.0898,-7.0867,-7.0955,-7.0987,-7.1053,-7.1079,-7.1044,-7.1178,-7.1205,-7.1324,-7.1362,-7.1388,-7.1411,-7.1368,-7.1535,-7.1551,-7.1566,-7.1619,-7.164,-7.1391,-7.139,-7.139,-7.1389,0,-7.0858,-7.0932,-7.0996,-7.1064,-7.1108,-7.1191,-7.12,-7.1246,-7.1237,-7.1249,-7.1348,-7.1381,-7.1446,-7.1473,-7.1464,-7.1592,-7.1571,-7.1536,-7.1473,-7.1593,-7.1643,-7.1663,-7.1398,-7.1396,-7.1395,-7.1393,0,0,-7.1035,-7.1102,-7.1126,-7.1157,-7.1211,-7.1267,-7.1349,-7.1415,-7.1455,-7.1501,-7.1569,-7.1661,-7.163,-7.1665,-7.1659,-7.1716,-7.1837,-7.1674,-7.1674,-7.1704,-7.1982,-7.2009,-7.2033,-7.1821,-7.1824,-7.1827,-7.1978,0,-7.1177,-7.1323,-7.1324,-7.1458,-7.1527,-7.1499,-7.1571,-7.1611,-7.1625,-7.1684,-7.1698,-7.1765,-7.1717,-7.1739,-7.1794,-7.1811,-7.1893,-7.18,-7.1884,-7.1887,-7.1875,-7.2059,-7.2087,-7.2228,-7.1998,-7.2001,-7.2003,0,-7.1362,-7.1419,-7.1561,-7.1607,-7.1636,-7.17,-7.1762,-7.1819,-7.1864,-7.187,-7.1912,-7.1898,-7.198,-7.1915,-7.2028,-7.1965,-7.1999,-7.2013,-7.2018,-7.2026,-7.1953,-7.2073,-7.2273,-7.2295,-7.2034,-7.2031,-7.2029,0,-7.148,-7.159,-7.169,-7.1717,-7.1773,-7.182,-7.1845,-7.1886,-7.1927,-7.198,-7.2006,-7.2067,-7.2101,-7.2148,-7.2151,-7.2103,-7.2266,-7.22,-7.2274,-7.2274,-7.231,-7.2308,-7.2519,-7.233,-7.233,-7.2329,-7.2329,0,-7.1639,-7.1727,-7.1744,-7.1805,-7.1903,-7.1903,-7.2,-7.202,-7.2058,-7.2122,-7.2101,-7.2161,-7.2161,-7.2222,-7.2224,-7.2319,-7.2334,-7.2341,-7.2341,-7.2344,-7.2343,-7.2367,-7.2357,-7.2335,-7.2334,-7.2333,-7.2332,0,-7.1787,-7.1801,-7.1909,-7.1954,-7.1968,-7.2038,-7.2076,-7.2135,-7.2147,-7.2229,-7.2248,-7.2268,-7.2339,-7.2347,-7.2428,-7.243,-7.2545,-7.2533,-7.2531,-7.2529,-7.2603,-7.2597,-7.2838,-7.287,-7.2659,-7.2661,-7.2662,0,-7.1888,-7.1956,-7.201,-7.2054,-7.2082,-7.2151,-7.2194,-7.2196,-7.224,-7.2299,-7.235,-7.242,-7.2476,-7.259,-7.2611,-7.2674,-7.2664,-7.2744,-7.2673,-7.2675,-7.2667,-7.2664,-7.2671,-7.2758,-7.2761,-7.2763,-7.2764,0,-7.2068,-7.2073,-7.2136,-7.2203,-7.2255,-7.2306,-7.2355,-7.2391,-7.2399,-7.245,-7.2524,-7.2568,-7.2654,-7.2723,-7.2786,-7.2809,-7.2789,-7.2787,-7.2807,-7.2812,-7.2808,-7.2813,-7.257,-7.2781,-7.2779,-7.2778,-7.2777,-7.2776,-7.2197,-7.2257,-7.2305,-7.2377,-7.2414,-7.2461,-7.2519,-7.2541,-7.2604,-7.2675,-7.2672,-7.2754,-7.2798,-7.2881,-7.2909,-7.2973,-7.2946,-7.2975,-7.2983,-7.299,-7.2999,-7.2798,-7.2984,-7.2983,-7.2983,-7.2982,-7.2982,0,-7.2377,-7.2407,-7.2473,-7.2544,-7.2601,-7.2579,-7.2632,-7.268,-7.2753,-7.2798,-7.2854,-7.294,-7.3008,-7.3035,-7.3101,-7.3147,-7.3139,-7.3164,-7.3161,-7.3168,-7.3018,-7.2995,-7.317,-7.317,-7.317,-7.317,-7.317,-7.317,-7.2477,-7.2579,-7.2589,-7.2709,-7.2738,-7.2821,-7.2853,-7.2896,-7.2932,-7.303,-7.3088,-7.3105,-7.3143,-7.3212,-7.3273,-7.3279,-7.3305,-7.3335,-7.3337,-7.3197,-7.3178,-7.316,-7.3138,-7.334,-7.334,-7.3481,-7.3482,-7.3483]}]]